Regional Weather Roundup
Issued by NWS

Home | Current Version | Previous Version | Graphics & Text | Print | Product List | Glossary On
Versions: 1 2 3 4 5 6 7 8 9 10 11 12 13 14 15 16 17 18 19 20 21 22 23 24 25 26 27 28 29 30 31 32 33 34 35 36 37 38 39 40 41 42 43 44 45 46 47 48 49 50
000
ASUS43 KDMX 031807
RWRIA

WEATHER ROUNDUP FOR IOWA
NATIONAL WEATHER SERVICE DES MOINES IA
100 PM CDT SUN MAY 03 2015

NOTE: "FAIR" INDICATES FEW OR NO CLOUDS BELOW 12,000 FEET WITH NO
SIGNIFICANT WEATHER AND/OR OBSTRUCTIONS TO VISIBILITY.

* - THESE STATIONS ARE NOT NWS STATIONS...THUS NOT UNDER NWS
QUALITY CONTROL.  THEY ALSO DO NOT REPORT WEATHER SUCH
AS PRECIPITATION OR FOG.

IAZ001>003-012>014-020>022-031>034-043>046-031900-
   NORTHWEST IOWA

CITY           SKY/WX    TMP DP  RH WIND       PRES   REMARKS
CARROLL *      SUNNY     79  59  50 S14       29.77F HX  80
CHEROKEE *     SUNNY     80  58  46 SW5       29.75F HX  80
DENISON *      SUNNY     79  61  53 S13       29.75S HX  80
LE MARS *      SUNNY     81  55  41 CALM      29.75S HX  80
ORANGE CITY *  SUNNY     79  54  41 E6        29.75F
SHELDON *      SUNNY     79  59  50 VRB3      29.76S HX  80
SIOUX CITY     SUNNY     80  56  43 SE9       29.74S HX  80
6HR MIN TEMP:  58; 6HR MAX TEMP:  81;

SPENCER        SUNNY     81  55  40 N5        29.78S HX  81
6HR MIN TEMP:  50; 6HR MAX TEMP:  81;

STORM LAKE *   SUNNY     79  55  44 VRB5      29.77F
$$

IAZ055>058-069>071-079>083-090>094-031900-
   SOUTHWEST IOWA

CITY           SKY/WX    TMP DP  RH WIND       PRES   REMARKS
ATLANTIC *     SUNNY     77  61  57 SW16      29.78S
AUDUBON *      SUNNY     75  64  69 S10       29.79S
CLARINDA *     SUNNY     79  61  53 S15G25    29.79F HX  80
COUNCIL BLFS * SUNNY     77  64  65 S10G18    29.77S
CRESTON *      SUNNY     77  63  61 S15G24    29.81S
HARLAN  *      SUNNY     77  66  69 S10G16    29.81S
LAMONI         SUNNY     78  58  49 S22G30    29.82F
6HR MIN TEMP:  59; 6HR MAX TEMP:  78;

RED OAK *      SUNNY     77  63  61 S15       29.78S
SHENANDOAH *   SUNNY     79  61  53 SW20      29.78S HX  80
$$

IAZ047>049-059>061-072>074-084-031900-
   CENTRAL IOWA

CITY           SKY/WX    TMP DP  RH WIND       PRES   REMARKS
AMES           SUNNY     77  60  55 S14       29.80F
6HR MIN TEMP:  57; 6HR MAX TEMP:  78;

ANKENY *       SUNNY     77  59  53 S9G20     29.81S
CHARITON *     SUNNY     75  59  57 S15G23    29.84S
DES MOINES     CLOUDY    79  58  48 S15G22    29.81F HX  80
6HR MIN TEMP:  60; 6HR MAX TEMP:  79; 6HR PCP: TRACE;

GRINNELL*      MOSUNNY   77  57  50 S15       29.84F
KNOXVILLE *    SUNNY     77  59  53 S15       29.83S
MARSHALLTOWN   SUNNY     76  61  59 S14       29.82F
6HR MIN TEMP:  56; 6HR MAX TEMP:  76;

PELLA *        MOSUNNY   77  64  63 S10G16    29.85F
PERRY *          N/A     79  57  47 S14G20    29.79S HX  80
$$

IAZ004>006-015-016-023>025-035-036-031900-
   NORTH CENTRAL IOWA

CITY           SKY/WX    TMP DP  RH WIND       PRES   REMARKS
ALGONA *       SUNNY     79  57  47 S10       29.79F HX  80
CLARION *      SUNNY     81  57  44 S8        29.80F HX  81
ESTHERVILLE    SUNNY     79  53  40 VRB7      29.78S
6HR MIN TEMP:  49; 6HR MAX TEMP:  79;

FORT DODGE *   SUNNY     81  61  50 S8        29.79F HX  81
MASON CITY     SUNNY     80  56  43 VRB6      29.81F HX  80
6HR MIN TEMP:  56; 6HR MAX TEMP:  80;

FOREST CITY *  SUNNY     77  55  47 SW8       29.80F
IOWA FALLS *     N/A     77  59  53 S8        29.83S
$$

IAZ007>011-017>019-026>030-037>042-050>054-066-031900-
   NORTHEAST IOWA

CITY           SKY/WX    TMP DP  RH WIND       PRES   REMARKS
CEDAR RAPIDS   MOSUNNY   61  57  87 SE8       29.88S
CHARLES CITY * SUNNY     77  57  50 SW9G17    29.83S
CLINTON *        N/A     66  57  72 NE8       29.94F
DECORAH *      SUNNY     75  54  46 S12G17    29.82F
DUBUQUE        LGT RAIN  60  56  86 S21       29.89S FOG
6HR MIN TEMP:  56; 6HR MAX TEMP:  64; 6HR PCP: TRACE;

MONTICELLO *   PTSUNNY   64  64 100 SE13      29.88S
OELWEIN *      SUNNY     75  55  50 S12       29.85S
WATERLOO       MOSUNNY   77  59  53 S9G20     29.83S
6HR MIN TEMP:  58; 6HR MAX TEMP:  77;

$$

IAZ064-065-067-068-078-031900-
   EAST CENTRAL IOWA

CITY           SKY/WX    TMP DP  RH WIND       PRES   REMARKS
DAVENPORT      LGT RAIN  68  57  68 W3        29.90S
6HR MIN TEMP:  59; 6HR MAX TEMP:  74; 6HR PCP:  0.03;

IOWA CITY      PTSUNNY   68  59  73 SE7       29.90F
6HR MIN TEMP:  58; 6HR MAX TEMP:  68; 6HR PCP:  0.02;

MT. PLEASANT * MOSUNNY   79  56  44 SW23G30   29.88S HX  80
MUSCATINE *    MOSUNNY   73  59  60 SW6       29.89F
QUAD CITIES    CLOUDY    75  55  49 S9        29.88R
6HR MIN TEMP:  59; 6HR MAX TEMP:  76; 6HR PCP: TRACE;

$$

IAZ062-063-075>077-085>089-095>099-031900-
   SOUTHEAST IOWA

CITY           SKY/WX    TMP DP  RH WIND       PRES   REMARKS
BURLINGTON     PTSUNNY   79  56  45 SW25G31   29.89S HX  80
6HR MIN TEMP:  58; 6HR MAX TEMP:  79;

FAIRFIELD *    MOSUNNY   77  57  50 S21       29.87S
FORT MADISON * SUNNY     79  55  44 S15G22    29.90F
KEOKUK *       SUNNY     79  57  47 S15G23    29.89F HX  80
OSKALOOSA *      N/A     77  57  50 SW16G22   29.85F
CENTERVILLE *  SUNNY     77  59  53 S17       29.87F
OTTUMWA        MOSUNNY   78  59  51 S15G21    29.85S
6HR MIN TEMP:  57; 6HR MAX TEMP:  79; 6HR PCP:  0.05;

WASHINGTON *   MOSUNNY   77  64  65 SW15      29.87F
$$

ABBREVIATIONS USED IN REMARKS
   TC - TEMPERATURES IN CELSIUS
  WCI - WIND CHILL INDEX
   HX - HEAT INDEX
  VSB - VISIBILITY
$$



USA.gov is the U.S. government's official web portal to all federal, state and local government web resources and services.